TimeCDT,TemperatureF,Dew PointF,Humidity,Sea Level PressureIn,VisibilityMPH,Wind Direction,Wind SpeedMPH,Gust SpeedMPH,PrecipitationIn,Events,Conditions,WindDirDegrees,DateUTC
12:52 AM,59.0,30.9,35,29.78,10.0,South,13.8,21.9,N/A,,Clear,190,2014-03-11 05:52:00
1:52 AM,57.0,30.9,37,29.75,10.0,South,15.0,25.3,N/A,,Clear,190,2014-03-11 06:52:00
2:52 AM,55.9,30.9,39,29.73,10.0,SSW,18.4,-,N/A,,Clear,200,2014-03-11 07:52:00
3:52 AM,55.0,30.9,40,29.71,10.0,SSW,17.3,-,N/A,,Clear,200,2014-03-11 08:52:00
4:52 AM,54.0,51.1,90,29.68,10.0,SSW,18.4,23.0,N/A,,Clear,210,2014-03-11 09:52:00
5:52 AM,52.0,50.0,93,29.66,10.0,South,13.8,-,N/A,,Clear,190,2014-03-11 10:52:00
6:04 AM,52.0,50.0,93,29.72,10.0,SSW,13.8,-,N/A,,Scattered Clouds,200,2014-03-11 11:04:00
6:15 AM,51.1,50.0,96,29.71,10.0,South,13.8,-,N/A,,Mostly Cloudy,190,2014-03-11 11:15:00
6:52 AM,51.1,50.0,96,29.67,10.0,SSW,13.8,20.7,N/A,,Mostly Cloudy,200,2014-03-11 11:52:00
7:37 AM,51.1,48.9,92,29.71,10.0,SSW,10.4,-,N/A,,Scattered Clouds,200,2014-03-11 12:37:00
7:52 AM,51.1,48.9,92,29.66,10.0,South,12.7,-,N/A,,Partly Cloudy,190,2014-03-11 12:52:00
8:52 AM,53.1,50.0,89,29.68,10.0,SSW,10.4,-,N/A,,Clear,210,2014-03-11 13:52:00
9:52 AM,55.9,48.9,77,29.67,10.0,SSW,19.6,-,N/A,,Clear,210,2014-03-11 14:52:00
10:52 AM,61.0,48.9,64,29.65,10.0,SSW,19.6,-,N/A,,Clear,200,2014-03-11 15:52:00
11:52 AM,68.0,46.9,47,29.64,10.0,SW,16.1,-,N/A,,Clear,220,2014-03-11 16:52:00
12:52 PM,75.0,45.0,34,29.60,10.0,SW,17.3,-,N/A,,Clear,230,2014-03-11 17:52:00
1:52 PM,82.0,37.9,21,29.55,10.0,SW,19.6,25.3,N/A,,Clear,220,2014-03-11 18:52:00
2:52 PM,88.0,27.0,11,29.51,10.0,West,18.4,31.1,N/A,,Clear,260,2014-03-11 19:52:00
3:52 PM,90.0,30.9,12,29.48,9.0,WNW,21.9,39.1,N/A,,Widespread Dust,290,2014-03-11 20:52:00
4:52 PM,90.0,30.9,12,29.48,10.0,WNW,23.0,35.7,N/A,,Widespread Dust,290,2014-03-11 21:52:00
5:52 PM,88.0,30.0,12,29.50,5.0,West,27.6,33.4,N/A,,Haze,280,2014-03-11 22:52:00
6:52 PM,84.9,28.0,13,29.53,5.0,WNW,11.5,24.2,N/A,,Haze,290,2014-03-11 23:52:00
7:35 PM,80.1,25.0,13,29.62,10.0,North,16.1,-,N/A,,Widespread Dust,360,2014-03-12 00:35:00
7:52 PM,78.1,23.0,13,29.59,10.0,North,11.5,-,N/A,,Widespread Dust,360,2014-03-12 00:52:00
8:52 PM,75.0,24.1,15,29.64,10.0,North,18.4,26.5,N/A,,Widespread Dust,10,2014-03-12 01:52:00
9:52 PM,66.9,36.0,32,29.74,10.0,North,25.3,38.0,N/A,,Clear,360,2014-03-12 02:52:00
10:52 PM,57.9,34.0,41,29.88,7.0,North,31.1,41.4,N/A,,Widespread Dust,10,2014-03-12 03:52:00
11:17 PM,55.0,34.0,45,29.97,6.0,North,33.4,44.9,N/A,,Haze,360,2014-03-12 04:17:00
11:52 PM,51.1,33.1,50,29.98,7.0,North,28.8,49.5,N/A,,Widespread Dust,360,2014-03-12 04:52:00